User: anonymous   Login
Location: Augirein
(42.9320°N, 0.9181°E)
Time: 20:06:35
(UTC+00:00)
Language:

FENGYUN 1C DEB - Orbit

View from above orbital plane
View from above orbital plane
View from above satellite
View from above satellite

Ground track
Ground track

The orbit data is extracted from the following two-line orbital elements,

1 30611U 99025AMS 22024.41805114  .00012036  00000-0  42239-3 0  9995
2 30611  98.6326 193.7593 0141912 280.6104  77.9171 15.20493275811890
Epoch (UTC): 24 January 2022 10:01:59
Eccentricity: 0.0141912
inclination: 98.6326°
perigee height: 406 km
apogee height: 602 km
right ascension of ascending node: 193.7593°
argument of perigee: 280.6104°
revolutions per day: 15.20493275
mean anomaly at epoch: 77.9171°
orbit number at epoch: 81189

The dashed part of the orbit path shows where the satellite is in the earth's shadow,  

DLR